[Iaude] MPEC J223: 2009 HL21 [a=1.66,e=0.44,i=1.0,H=22.55]

mpec at cfa.harvard.edu mpec at cfa.harvard.edu
Thu May 9 10:14:21 EDT 2024


M.P.E.C. 2024-J223                                  Issued 2024 May 9, 14:13 UT

     The Minor Planet Electronic Circulars contain information on unusual
         minor planets, routine data on comets and natural satellites,
         and occasional editorial announcements.  They are published
    on behalf of Division F of the International Astronomical Union by the
          Minor Planet Center, Smithsonian Astrophysical Observatory,
                          Cambridge, MA 02138, U.S.A.
			  
             Prepared using the Tamkin Foundation Computer Network

                              MPC at CFA.HARVARD.EDU
            URL https://www.minorplanetcenter.net/    ISSN 1523-6714

                                   2009 HL21                                    


                           Revision to MPEC 2009-H35                            

Additional Observations:
     K09H21L 1C2024 05 03.23016811 12 33.984+11 58 38.10         20.29GVEJ223G96
     K09H21L 1C2024 05 03.23532311 12 36.529+11 58 19.63         20.47GVEJ223G96
     K09H21L 1C2024 05 03.24047311 12 39.118+11 58 01.38         20.92GVEJ223G96
     K09H21L 1C2024 05 03.24561911 12 41.641+11 57 42.98         20.16GVEJ223G96
     K09H21L KC2024 05 07.93721611 48 37.961+07 37 57.68         20.1 GVEJ223J95
     K09H21L KC2024 05 07.94680211 48 41.803+07 37 29.39         20.3 GVEJ223J95
     K09H21L mC2024 05 08.24458011 50 42.518+07 22 31.30         20.71GVEJ223I52
     K09H21L mC2024 05 08.24535711 50 42.810+07 22 28.67         20.60GVEJ223I52
     K09H21L mC2024 05 08.24822611 50 43.930+07 22 19.92         20.72GVEJ223I52
     K09H21L mC2024 05 08.24899811 50 44.221+07 22 17.76         20.79GVEJ223I52

Observer details:
G96 Mt. Lemmon Survey.  Observer H. Groeller.  Measurers T. Beuden, V. F.
    Carvajal, D. Fay, J. B. Fazekas, D. C. Fuls, A. R. Gibbs, A. D. Grauer, H.
    Groeller, J. K. Hogan, R. A. Kowalski, S. M. Larson, G. J. Leonard, D.
    Rankin, R. L. Seaman, F. C. Shelly, K. W. Wierzchos.  1.5-m reflector +
    10K CCD.
I52 Steward Observatory, Mt. Lemmon Station.  Observer H. Groeller.  Measurers
    T. Beuden, V. F. Carvajal, D. Fay, J. B. Fazekas, D. C. Fuls, A. R. Gibbs,
    A. D. Grauer, H. Groeller, J. K. Hogan, R. A. Kowalski, S. M. Larson, G.
    J. Leonard, D. Rankin, R. L. Seaman, F. C. Shelly, K. W. Wierzchos.  1.0-m
    prime focus + CCD.
J95 Great Shefford.  Observer P. Birtwhistle.  0.41-m f/6.3 Schmidt-Cassegrain
    + CCD.

First and last observations above in comparison with prediction:
Residuals in seconds of arc (or two decimals in degrees), reference and Delta-T
240503 G96 6.22- 2.13-    240508 I52 5.56- 2.07-    E2023-XF2   -1.13 days

Orbital elements:
2009 HL21                                                Earth MOID = 0.0078 AU
Epoch 2024 Mar. 31.0 TT = JDT 2460400.5                 Veres                   
M   8.87001              (2000.0)            P               Q                  
n   0.45939524     Peri.    9.42430     -0.89703992     -0.44183011             
a   1.6634576      Node   144.34929     +0.40432407     -0.82983399             
e   0.4443685      Incl.    1.00995     +0.17844168     -0.34082504             
P   2.15           H   22.55          G   0.15           U   0                  
Residuals in seconds of arc
090420 621  0.7-  1.3+    090422 204  0.0   0.4-    090425 B01  0.2-  0.1-
090420 621  0.1-  0.1+    090422 H55  0.0   0.0     090425 B01  0.1-  0.1-
090420 621  0.4-  0.4+    090422 H55  0.1+  0.2+    090425 B01  0.0   0.2-
090420 621  0.1-  0.2-    090422 H55  0.1+  0.1+    090425 B01  0.0   0.1+
090420 621  0.7-  0.9+    090422 A99  0.1+  0.6-    090425 B01  0.0   0.0
090420 621  0.0   0.0     090422 A99  0.5+  0.6-    090426 704  0.4+  0.1+
090420 621  0.3+  0.5-    090422 A99  0.2+  0.2-    090426 704  0.1+  0.1+
090420 621  0.4-  0.3+    090422 A74  0.0   0.3+    090426 704  0.5+  0.3+
090421 113  0.2+  0.1-    090422 A99  0.1+  0.3-    090426 704  0.2+  0.0
090421 113  0.0   0.2-    090422 A74  0.2+  0.1-    090426 704  0.3+  0.1+
090421 113  0.0   0.4-    090422 A74  0.2+  0.2+    090427 703  0.3-  0.1+
090421 113  0.1-  0.2-    090422 A74  0.2+  0.2-    090427 703  0.4+  0.7+
090421 A17  0.3+  0.1-    090422 160  0.0   0.0     090427 703  0.2-  0.6+
090421 A17  0.5+  0.1-    090422 160  0.0   0.1-    090427 703  0.2-  0.1-
090421 A17  0.3+  0.4-    090422 160  0.1+  0.1-    090429 691  0.5-  0.1+
090421 A17  0.3+  0.1-    090422 621  0.3+  0.6-    090429 691  0.0   0.1-
090421 A17  0.3+  0.1-    090422 621  0.0   0.0     090429 691  0.1-  0.0
090421 114  0.3-  0.1-    090422 A53  0.7-  0.2-    090429 J75  0.0   0.3-
090421 114  0.4+  0.0     090422 621  0.1-  0.4-    090429 J75  0.6+  0.0
090421 B03  0.3-  0.0     090422 A53  0.3+  1.0-    090429 J75  0.0   0.5+
090421 J95  0.0   0.1+    090423 H45  0.1-  0.0     090430 704  0.4-  0.3-
090421 J95  0.1-  0.1-    090423 H45  0.1-  0.1+    090430 704  0.1-  0.1-
090421 B03  0.1-  0.3+    090423 H45  0.0   0.1+    090430 704  1.4+  0.1+
090421 J95  0.2-  0.5+    090423 H45  0.1+  0.0     090430 704  0.0   0.9+
090421 B03  0.2+  0.1-    090423 H45  0.3+  0.4+    090430 704  0.1+  0.8-
090421 B36  0.2+  0.2+    090423 H45  0.0   0.2+    090511 448  0.2+  1.4+
090421 B36  0.2+  0.2-    090423 H45  0.1+  0.2+    090511 448  0.1-  0.4-
090421 B03  0.0   0.2+    090423 H45  0.1-  0.1-    090511 448  0.0   0.3+
090421 B36  0.0   0.1+    090423 H45  0.2+  0.2+    090516 G96  0.1-  0.0
090421 J41  0.1-  0.2-    090423 H55  0.2-  0.1+    090516 G96  0.1-  0.1-
090421 611  0.2-  0.1-    090423 H55  0.2-  0.2+    090516 G96  0.1+  0.1-
090421 611  0.0   0.3+    090423 H55  0.2-  0.1+    090530 291  0.0   0.3+
090421 611  0.2-  0.1+    090423 H55  0.0   0.1+    090530 291  0.1-  0.1-
090421 J41  0.6-  0.1+    090424 046  0.1+  1.0+    090530 291  0.1+  0.3-
090421 J41  0.1-  0.1-    090424 046  0.5+  0.3+    090531 291  0.0   0.5-
090421 510  0.0   0.2-    090424 046  0.4+  0.0     090531 291 (0.8-  1.6-)
090421 510  0.0   0.1-    090424 046  0.1+  0.7+    240503 G96  0.0   0.0
090421 510  0.5-  0.0     090424 046  0.0   0.1+    240503 G96  0.2-  0.0
090421 621  0.1-  0.2-    090424 046  0.9+  0.4-    240503 G96  0.2+  0.1+
090421 621  0.2+  0.2+    090424 046  0.7+  0.0     240503 G96  0.2-  0.1+
090421 621  0.0   0.8+    090424 046  0.2-  1.6+    240507 J95  0.3+  0.5-
090422 621  0.1+  0.3+    090424 046  0.3+  0.2+    240507 J95  0.7+  0.7+
090422 621  0.0   0.0     090424 046  0.2+  0.3-    240508 I52  0.2+  0.1+
090422 204  0.0   0.2-    090425 B01  0.1+  0.2-    240508 I52  0.0   0.1-
090422 204  0.0   0.2-    090425 B01  0.0   0.1-    240508 I52  0.1+  0.1-
090422 204  0.4+  0.2-    090425 B01  0.2+  0.0     240508 I52  0.0   0.1+

Ephemeris:
2009 HL21                a,e,i = 1.66, 0.44, 1                   q = 0.9243
Date    TT    R. A. (2000) Decl.     Delta      r    Elong.  Phase     V
2024 04 09    06 35 42.6 +27 32 32   0.1630  0.9826    78.7    92.0    21.8
...
2024 04 24    09 36 08.6 +21 16 38   0.1420  1.0522   105.3    67.2    20.8
...
2024 05 02    11 01 44.6 +13 12 36   0.1614  1.0964   119.5    53.1    20.7
...
2024 05 08    11 49 04.1 +07 35 21   0.1883  1.1319   126.7    45.7    20.9
2024 05 09    11 55 42.6 +06 45 09   0.1936  1.1380   127.6    44.7    21.0
2024 05 10    12 02 02.5 +05 56 47   0.1992  1.1441   128.4    43.8    21.0
...
2024 05 16    12 34 28.2 +01 43 32   0.2361  1.1815   131.7    39.7    21.4
...
2024 05 24    13 06 50.0 -02 32 09   0.2941  1.2329   133.2    36.8    21.8
...
2024 06 08    13 49 22.1 -07 55 27   0.4244  1.3315   130.8    35.3    22.8

A. U. Tomatic                (C) Copyright 2024 MPC           M.P.E.C. 2024-J223





More information about the Iaude mailing list